Regional Weather Roundup
Issued by NWS

Home | Current Version | Previous Version | Graphics & Text | Print | Product List | Glossary On
Versions: 1 2 3 4 5 6 7 8 9 10 11 12 13 14 15 16 17 18 19 20 21 22 23 24 25 26 27 28 29 30 31 32 33 34 35 36 37 38 39 40 41 42 43 44 45 46 47 48 49 50
862
ASUS43 KOAX 162010
RWRNE

WEATHER ROUNDUP FOR NEBRASKA
NATIONAL WEATHER SERVICE OMAHA NE
300 PM CDT WED AUG 16 2017

NOTES: SATELLITE DATA IS BEING USED TO AUGMENT CLOUD COVER ABOVE
       12000 FEET.
       "FAIR" INDICATES FEW OR NO CLOUDS BELOW 12,000 FEET WITH NO
       SIGNIFICANT WEATHER AND/OR OBSTRUCTIONS TO VISIBILITY.


NEZ001>004-019>022-054>056-162100-
NEBRASKA PANHANDLE

CITY           SKY/WX    TMP DP  RH WIND       PRES   REMARKS
SCOTTSBLUFF    PTSUNNY   76  50  40 N15       30.04F
ALLIANCE       PTSUNNY   68  56  65 N14       30.03F
CHADRON        MOSUNNY   76  51  41 N12       30.02F
GORDON         MOCLDY    71  55  56 N10       30.01S
KIMBALL        MOSUNNY   72  48  42 N13G22    30.10S
SIDNEY         PTSUNNY   73  51  46 N10       30.07S
$$

NEZ057>060-069>072-079>082-162100-
SOUTHWEST NEBRASKA

CITY           SKY/WX    TMP DP  RH WIND       PRES   REMARKS
NORTH PLATTE   CLOUDY    69  61  75 NW20G31   29.96R
IMPERIAL       PTSUNNY   75  58  55 N14       29.99S
LEXINGTON      PTSUNNY   79  61  54 W12G17    29.90S
MCCOOK         PTSUNNY   80  61  52 NW14G20   29.93F
OGALLALA       CLOUDY    73  58  59 N12G20    30.00S
$$

NEZ005>010-023>029-035>040-094-162100-
NORTH CENTRAL NEBRASKA

CITY           SKY/WX    TMP DP  RH WIND       PRES   REMARKS
VALENTINE      LGT RAIN  65  59  81 NW13      29.95R
AINSWORTH      CLOUDY    64  62  91 N16       29.94S
BROKEN BOW     CLOUDY    73  63  70 N10       29.89R
O`NEILL        CLOUDY    70  65  84 NW8       29.86S
ORD            PTSUNNY   74  63  68 NW13      29.85R
THEDFORD       RAIN      64  61  87 NW10      29.98R
$$

NEZ041-046>049-061>064-073>077-083>087-162100-
SOUTH CENTRAL NEBRASKA

CITY           SKY/WX    TMP DP  RH WIND       PRES   REMARKS
GRAND ISLAND   MOSUNNY   78  64  61 NW13      29.85S
AURORA         PTSUNNY   77  64  65 W10       29.83F
HASTINGS       MOSUNNY   77  62  59 W14       29.87F
HEBRON         MOSUNNY   80  64  57 W13       29.83F
HOLDREGE       MOSUNNY   74  60  60 NW6       29.90S
KEARNEY        MOSUNNY   77  62  59 W9        29.88F
YORK           MOSUNNY   75  66  73 W12       29.82F
$$

NEZ011>018-030>034-042>045-162100-
NORTHEAST NEBRASKA

CITY           SKY/WX    TMP DP  RH WIND       PRES   REMARKS
NORFOLK        LGT RAIN  69  64  84 NW13      29.78R
ALBION         CLOUDY    74  67  78 NW9       29.82S
BLAIR          PTSUNNY   79  68  69 SW14G22   29.75F
COLUMBUS       CLOUDY    74  67  78 W13       29.80S
FREMONT        CLOUDY    76  66  71 SW10      29.77S
TEKAMAH        PTSUNNY   78  67  68 SW14      29.72F
WAYNE          CLOUDY    71  68  91 N14       29.76S
$$

NEZ050>053-065>068-078-088>093-162100-
SOUTHEAST NEBRASKA

CITY           SKY/WX    TMP DP  RH WIND       PRES   REMARKS
LINCOLN        MOSUNNY   81  65  58 W17       29.79F
OMAHA EPPLEY   MOSUNNY   84  64  50 SW14      29.74F
BEATRICE       MOSUNNY   81  65  58 W16       29.81F
FALLS CITY     PTSUNNY   84  66  54 W13G20    29.79R
NEBRASKA CITY  MOSUNNY   82  67  60 W14       29.79S
PLATTSMOUTH    PTSUNNY   80  65  59 SW13      29.77S
$$

NEZ044-045-051>053-067-162100-
OMAHA AREA

CITY           SKY/WX    TMP DP  RH WIND       PRES   REMARKS
OMAHA EPPLEY   MOSUNNY   84  64  50 SW14      29.74F
BLAIR          PTSUNNY   79  68  69 SW14G22   29.75F
FREMONT        CLOUDY    76  66  71 SW10      29.77S
MILLARD        PTSUNNY   82  68  63 W10G21    29.76S
OFFUTT AFB     PTSUNNY   83  65  53 SW15      29.74F
PLATTSMOUTH    PTSUNNY   80  65  59 SW13      29.77S
WAHOO          CLOUDY    76  67  71 W15       29.77S
$$




USA.gov is the U.S. government's official web portal to all federal, state and local government web resources and services.